FW6321 Weather Reports


time (UTC)temp
C
wind
direction
speed
KPH
gust
KPH
rain 1hr
cm
rain 24hr
cm
rain mn
cm
humidity
%
barometer
mb
20260901135600 21 233 12.9 27.4 0.00 0.41 0.38 62 1020.9
20260901135548 22 231 11.3 27.4 0.00 0.41 0.38 61 1021.0
20260901134558 22 237 9.7 17.7 0.00 0.41 0.38 62 1020.9
20260901134056 21 233 11.3 22.5 0.00 0.41 0.38 63 1020.9
20260901133556 21 240 11.3 22.5 0.00 0.41 0.38 62 1020.9
20260901133050 21 282 11.3 27.4 0.00 0.41 0.38 65 1020.9
20260901132544 21 222 12.9 27.4 0.00 0.41 0.38 62 1021.0
20260901132043 21 269 11.3 25.7 0.00 0.41 0.38 65 1020.8
20260901131546 21 239 12.9 25.7 0.00 0.41 0.38 64 1020.9
20260901131045 21 199 12.9 24.1 0.00 0.41 0.38 63 1020.9
20260901130547 21 267 9.7 22.5 0.00 0.41 0.38 64 1020.9
20260901130045 21 264 11.3 25.7 0.00 0.41 0.38 64 1020.9
20260901125543 21 241 12.9 25.7 0.00 0.41 0.38 63 1020.9
20260901125043 21 221 14.5 25.7 0.00 0.41 0.38 65 1020.9
20260901124544 21 229 14.5 25.7 0.00 0.41 0.38 62 1020.8
20260901124044 21 243 12.9 25.7 0.00 0.41 0.38 63 1020.8
20260901123541 21 245 12.9 25.7 0.00 0.41 0.38 62 1020.8
20260901123044 21 235 9.7 22.5 0.00 0.41 0.38 63 1020.9
20260901122543 22 227 8.0 20.9 0.00 0.41 0.38 62 1020.8
20260901122042 21 270 11.3 20.9 0.00 0.41 0.38 63 1020.9
20260901121541 21 222 12.9 24.1 0.00 0.41 0.38 63 1020.9
20260901121041 20 216 16.1 30.6 0.00 0.41 0.38 64 1020.9
20260901120542 21 287 17.7 30.6 0.00 0.41 0.38 64 1021.0
20260901120535 20 162 17.7 29.0 0.00 0.41 0.38 65 1021.0
20260901115541 20 244 17.7 29.0 0.00 0.41 0.38 65 1021.0
20260901115037 20 250 14.5 29.0 0.00 0.41 0.38 65 1021.0
20260901114538 20 233 12.9 22.5 0.00 0.41 0.38 65 1020.9
20260901114523 20 276 14.5 27.4 0.00 0.41 0.38 64 1020.9
20260901114243 20 241 14.5 27.4 0.00 0.41 0.38 64 1020.9
20260901113037 20 179 12.9 27.4 0.00 0.41 0.38 65 1020.9
20260901112537 20 244 12.9 32.2 0.00 0.41 0.38 65 1020.9
20260901112050 21 277 14.5 32.2 0.00 0.41 0.38 65 1020.7
20260901111537 21 149 14.5 29.0 0.00 0.41 0.38 65 1020.7
20260901111038 20 252 16.1 29.0 0.00 0.41 0.38 66 1020.8
20260901110533 21 255 12.9 27.4 0.00 0.41 0.38 66 1020.9
20260901110035 21 251 12.9 27.4 0.00 0.41 0.38 67 1020.7
20260901105536 21 240 14.5 27.4 0.00 0.41 0.38 67 1020.7
20260901105033 20 234 12.9 27.4 0.00 0.41 0.38 66 1020.7
20260901104536 20 249 12.9 25.7 0.00 0.41 0.38 66 1020.8
20260901104034 20 251 11.3 22.5 0.00 0.41 0.38 68 1020.7
20260901103534 20 224 11.3 20.9 0.00 0.41 0.38 70 1020.7
20260901103035 20 270 11.3 20.9 0.00 0.41 0.38 69 1020.8
20260901102533 20 236 12.9 24.1 0.00 0.41 0.38 71 1020.8
20260901102522 19 221 11.3 24.1 0.00 0.41 0.38 69 1020.8
20260901101533 20 284 12.9 24.1 0.00 0.41 0.38 69 1020.8
20260901101031 20 301 11.3 24.1 0.00 0.41 0.38 70 1020.6
20260901100532 20 266 9.7 22.5 0.00 0.41 0.38 70 1020.8
20260901100521 20 250 12.9 24.1 0.00 0.41 0.38 74 1020.7
20260901095531 20 217 12.9 24.1 0.00 0.41 0.38 72 1020.6
20260901095033 19 258 12.9 24.1 0.00 0.41 0.38 74 1020.7
20260901094530 19 231 14.5 24.1 0.00 0.41 0.38 73 1020.7
20260901094519 20 237 12.9 22.5 0.00 0.41 0.38 73 1020.7
20260901093532 20 233 11.3 22.5 0.00 0.41 0.38 75 1020.7
20260901093032 20 239 9.7 24.1 0.00 0.41 0.38 76 1020.5
20260901092532 19 264 12.9 25.7 0.00 0.41 0.38 76 1020.6
20260901092515 19 182 12.9 25.7 0.00 0.41 0.38 76 1020.6
20260901091531 19 245 11.3 22.5 0.00 0.41 0.38 77 1020.5
20260901091516 18 237 11.3 20.9 0.00 0.41 0.38 79 1020.4
20260901090533 18 266 12.9 20.9 0.00 0.41 0.38 78 1020.4
20260901090521 18 260 12.9 20.9 0.00 0.41 0.38 80 1020.5
20260901085532 18 254 12.9 25.7 0.00 0.41 0.38 81 1020.4
20260901085030 18 248 12.9 25.7 0.00 0.41 0.38 81 1020.4
20260901084532 18 226 11.3 25.7 0.00 0.41 0.38 81 1020.4
20260901084032 18 233 9.7 20.9 0.00 0.41 0.38 83 1020.3
20260901083533 18 243 9.7 20.9 0.00 0.41 0.38 85 1020.3
20260901083031 18 204 11.3 20.9 0.00 0.41 0.38 86 1020.1
20260901082532 18 245 9.7 20.9 0.00 0.41 0.38 88 1020.2
20260901082514 17 206 9.7 19.3 0.00 0.41 0.38 90 1020.0
20260901082009 17 279 8.0 19.3 0.00 0.41 0.38 94 1019.8
20260901081032 17 226 4.8 14.5 0.00 0.41 0.38 95 1019.9
20260901080531 17 246 6.4 14.5 0.00 0.41 0.38 96 1019.8
20260901080509 17 239 6.4 14.5 0.00 0.41 0.38 96 1019.8
20260901080016 16 249 6.4 16.1 0.00 0.41 0.38 97 1019.7
20260901075031 16 249 9.7 16.1 0.00 0.41 0.38 97 1019.6
20260901074534 16 272 9.7 16.1 0.00 0.41 0.38 97 1019.6
20260901074030 16 243 8.0 16.1 0.00 0.41 0.38 98 1019.4
20260901073533 16 243 8.0 14.5 0.00 0.41 0.38 98 1019.4
20260901073031 17 255 6.4 14.5 0.00 0.41 0.38 98 1019.4
20260901072534 17 226 4.8 11.3 0.00 0.41 0.38 98 1019.3
20260901072031 17 229 4.8 11.3 0.00 0.41 0.38 98 1019.3
20260901071529 17 239 3.2 11.3 0.00 0.41 0.38 99 1019.3
20260901071220 17 227 4.8 11.3 0.00 0.41 0.38 98 1019.2
20260901070935 17 204 4.8 9.7 0.00 0.41 0.38 98 1019.2
20260901070722 17 229 3.2 8.0 0.00 0.41 0.38 98 1019.3
20260901065025 17 200 3.2 8.0 0.00 0.41 0.38 98 1019.2
20260901064525 16 224 1.6 4.8 0.00 0.41 0.38 98 1019.1
20260901064026 16 218 1.6 4.8 0.00 0.41 0.38 98 1019.0
20260901063954 16 228 3.2 4.8 0.00 0.43 0.38 98 1019.0
20260901063726 16 226 1.6 4.8 0.00 0.41 0.38 98 1019.0
20260901062527 16 225 1.6 4.8 0.00 0.43 0.38 98 1018.9
20260901062022 16 200 1.6 4.8 0.00 0.43 0.38 98 1018.9
20260901061524 16 218 1.6 4.8 0.00 0.43 0.38 98 1018.8
20260901061024 16 229 3.2 6.4 0.00 0.43 0.38 98 1018.9
20260901060524 16 220 1.6 6.4 0.00 0.43 0.38 98 1018.8
20260901060022 16 186 3.2 6.4 0.00 0.43 0.38 98 1018.8
20260901055943 16 169 3.2 8.0 0.00 0.53 0.38 98 1018.8
20260901055928 16 169 1.6 4.8 0.00 0.51 0.38 98 1018.7
20260901055717 16 199 1.6 6.4 0.00 0.46 0.38 98 1018.8
20260901054514 16 195 4.8 8.0 0.00 0.53 0.38 98 1018.7
20260901054006 16 184 4.8 9.7 0.00 0.53 0.38 98 1018.7
20260901053005 16 164 4.8 9.7 0.00 0.53 0.38 98 1018.7
20260901052511 16 177 3.2 6.4 0.00 0.53 0.38 98 1018.7
20260901052005 16 170 3.2 6.4 0.00 0.53 0.38 98 1018.6
20260901051504 16 169 3.2 6.4 0.00 0.53 0.38 98 1018.5
20260901051006 16 169 3.2 6.4 0.00 0.53 0.38 98 1018.5
20260901050504 16 200 4.8 8.0 0.00 0.53 0.38 98 1018.4
20260901050003 16 199 3.2 8.0 0.00 0.53 0.38 98 1018.5
20260901045506 16 183 3.2 8.0 0.00 0.53 0.38 98 1018.4
20260901045004 16 197 3.2 9.7 0.00 0.53 0.38 98 1018.4
20260901044506 16 194 3.2 9.7 0.00 0.53 0.38 98 1018.4
20260901044003 16 216 3.2 6.4 0.00 0.53 0.38 98 1018.5
20260901043504 16 215 3.2 6.4 0.00 0.53 0.38 98 1018.4
20260901043437 16 220 3.2 9.7 0.00 0.53 0.38 98 1018.3
20260901042503 16 178 4.8 9.7 0.00 0.53 0.38 98 1018.3
20260901042002 16 186 3.2 9.7 0.00 0.53 0.38 98 1018.1
20260901041949 16 191 3.2 8.0 0.00 0.53 0.38 98 1018.1
20260901041003 16 186 4.8 8.0 0.00 0.53 0.38 98 1018.1
20260901040505 16 187 4.8 11.3 0.00 0.53 0.38 98 1018.0
20260901040007 16 182 3.2 11.3 0.00 0.53 0.38 98 1018.0
20260901035945 16 185 3.2 6.4 0.03 0.53 0.38 98 1017.9
20260901035004 16 228 3.2 6.4 0.03 0.53 0.38 98 1018.1
20260901034503 16 214 3.2 9.7 0.03 0.53 0.38 98 1018.1
20260901034431 16 195 3.2 6.4 0.03 0.53 0.38 98 1018.0
20260901034422 16 216 3.2 6.4 0.03 0.53 0.38 98 1018.0
20260901034204 16 219 4.8 9.7 0.03 0.53 0.38 98 1017.9
20260901032506 16 225 3.2 8.0 0.03 0.53 0.38 98 1018.0
20260901032004 16 222 3.2 9.7 0.03 0.53 0.38 97 1018.0
20260901031504 16 191 3.2 9.7 0.03 0.53 0.38 97 1017.9
20260901031004 16 195 3.2 6.4 0.03 0.53 0.38 97 1017.9
20260901030505 16 202 3.2 8.0 0.03 0.53 0.38 97 1017.9
20260901030004 16 199 4.8 9.7 0.03 0.53 0.38 97 1017.9
20260901025504 16 182 4.8 9.7 0.00 0.51 0.36 97 1017.8
20260901024957 16 198 4.8 8.0 0.00 0.51 0.36 97 1017.7
20260901024458 16 188 3.2 8.0 0.00 0.51 0.36 97 1017.8
20260901023955 16 199 3.2 8.0 0.00 0.51 0.36 97 1017.8
20260901023458 16 201 4.8 8.0 0.00 0.51 0.36 97 1017.7
20260901022954 16 210 3.2 8.0 0.00 0.51 0.36 97 1017.6
20260901022456 16 186 3.2 8.0 0.00 0.51 0.36 97 1017.6
20260901021959 16 218 3.2 6.4 0.00 0.51 0.36 97 1017.6
20260901021457 16 214 3.2 8.0 0.00 0.51 0.36 97 1017.7
20260901020958 16 230 3.2 8.0 0.00 0.51 0.36 97 1017.7
20260901020929 16 199 3.2 8.0 0.00 0.51 0.36 97 1017.6
20260901015956 16 193 3.2 8.0 0.00 0.51 0.36 97 1017.6
20260901015932 16 177 3.2 8.0 0.00 0.51 0.36 97 1017.6
20260901015436 15 175 3.2 6.4 0.00 0.51 0.36 97 1017.5
20260901014931 15 185 3.2 6.4 0.00 0.51 0.36 97 1017.6
20260901013954 15 187 1.6 6.4 0.00 0.51 0.36 96 1017.6
20260901013454 15 205 1.6 4.8 0.00 0.51 0.36 96 1017.5
20260901012950 15 206 1.6 4.8 0.00 0.51 0.36 96 1017.5
20260901012452 15 181 0.0 3.2 0.00 0.51 0.36 96 1017.5
20260901011949 15 168 0.0 3.2 0.00 0.51 0.36 96 1017.4
20260901011914 15 168 3.2 8.0 0.00 0.51 0.36 96 1017.5
20260901011652 15 168 1.6 8.0 0.00 0.51 0.36 96 1017.4
20260901010447 15 177 3.2 6.4 0.00 0.51 0.36 96 1017.5
20260901005948 15 183 3.2 8.0 0.00 0.51 0.36 96 1017.6
20260901005448 15 187 4.8 9.7 0.00 0.51 0.36 96 1017.6
20260901004949 15 199 4.8 9.7 0.00 0.51 0.36 95 1017.5
20260901004448 15 181 3.2 8.0 0.00 0.51 0.36 95 1017.5
20260901003944 15 185 3.2 6.4 0.00 0.51 0.36 95 1017.5
20260901003444 15 186 3.2 8.0 0.00 0.51 0.36 95 1017.4
20260901002944 15 188 4.8 8.0 0.00 0.51 0.36 95 1017.5
20260901002925 15 172 4.8 6.4 0.00 0.51 0.36 95 1017.5
20260901001946 15 183 3.2 6.4 0.00 0.51 0.36 95 1017.5
20260901001444 15 183 3.2 6.4 0.00 0.51 0.36 95 1017.5
20260901000945 15 188 3.2 6.4 0.00 0.51 0.36 95 1017.4
20260901000450 15 199 3.2 8.0 0.00 0.51 0.36 94 1017.4
20260831235946 15 201 3.2 8.0 0.00 0.51 0.36 95 1017.4
20260831235444 16 183 4.8 8.0 0.00 0.51 0.36 94 1017.3
20260831234945 16 183 4.8 9.7 0.00 0.51 0.36 94 1017.4
20260831234443 16 187 4.8 11.3 0.00 0.51 0.36 94 1017.3
20260831233944 16 191 4.8 11.3 0.00 0.51 0.36 94 1017.4
20260831233446 16 185 4.8 8.0 0.00 0.51 0.36 94 1017.4
20260831232945 16 172 4.8 12.9 0.05 0.51 0.36 94 1017.4
20260831232443 16 181 4.8 12.9 0.15 0.51 0.36 93 1017.3
20260831231941 16 180 4.8 8.0 0.36 0.51 0.36 93 1017.4
20260831231442 16 177 3.2 6.4 0.36 0.51 0.36 93 1017.3
20260831230936 16 212 3.2 9.7 0.36 0.51 0.36 93 1017.2
20260831230924 16 217 4.8 16.1 0.36 0.51 0.36 92 1017.1
20260831225935 16 237 4.8 16.1 0.36 0.51 0.36 92 1017.2
20260831225438 16 206 4.8 12.9 0.36 0.51 0.36 93 1017.3
20260831224935 17 218 4.8 12.9 0.36 0.51 0.36 92 1017.2
20260831224438 17 246 6.4 14.5 0.36 0.51 0.36 92 1017.2
20260831223934 17 198 6.4 14.5 0.36 0.51 0.36 92 1017.2
20260831223435 17 175 6.4 16.1 0.36 0.51 0.36 92 1017.0
20260831222948 18 256 9.7 22.5 0.20 0.36 0.20 92 1017.2
20260831222933 18 251 9.7 22.5 0.30 0.46 0.28 92 1017.1
20260831221932 18 254 9.7 14.5 0.00 0.15 0.00 91 1017.3
20260831221432 18 219 8.0 14.5 0.00 0.15 0.00 91 1017.0
20260831220933 18 171 6.4 14.5 0.00 0.15 0.00 91 1016.9
20260831220432 18 214 8.0 17.7 0.00 0.15 0.00 91 1016.9
20260831215932 18 218 8.0 17.7 0.00 0.15 0.15 91 1016.8
20260831215430 18 196 8.0 20.9 0.00 0.15 0.15 91 1016.7
20260831214944 18 199 8.0 17.7 0.00 0.15 0.15 91 1016.8
20260831214933 18 245 6.4 20.9 0.00 0.15 0.15 91 1016.7
20260831213934 18 215 8.0 16.1 0.00 0.15 0.15 92 1016.8
20260831213929 18 216 8.0 17.7 0.00 0.15 0.15 92 1016.7
20260831212932 18 226 8.0 17.7 0.00 0.15 0.15 92 1016.7
20260831212431 18 233 8.0 17.7 0.00 0.15 0.15 91 1016.7
20260831211933 18 227 8.0 17.7 0.00 0.15 0.15 91 1016.6
20260831211907 18 201 8.0 17.7 0.00 0.15 0.15 92 1016.6
20260831210932 18 189 8.0 17.7 0.00 0.15 0.15 91 1016.6
20260831210432 18 238 6.4 14.5 0.00 0.15 0.15 91 1016.5
20260831205934 18 214 6.4 14.5 0.00 0.15 0.15 91 1016.4
20260831205913 18 233 6.4 12.9 0.00 0.15 0.15 90 1016.4
20260831204930 18 213 6.4 20.9 0.00 0.15 0.15 90 1016.4
20260831204431 18 218 8.0 20.9 0.00 0.15 0.15 89 1016.5
20260831204412 18 210 8.0 19.3 0.00 0.15 0.15 89 1016.4
20260831203434 18 217 8.0 17.7 0.00 0.15 0.15 89 1016.3
20260831202931 18 229 8.0 17.7 0.00 0.15 0.15 88 1016.3
20260831202430 18 215 8.0 17.7 0.00 0.15 0.15 88 1016.3
20260831201933 18 237 8.0 16.1 0.00 0.15 0.15 88 1016.3
20260831201433 18 248 9.7 19.3 0.00 0.15 0.15 88 1016.3
20260831200931 18 206 9.7 19.3 0.00 0.15 0.15 87 1016.2
20260831200432 18 235 9.7 20.9 0.00 0.15 0.15 87 1016.2
20260831195932 18 220 11.3 20.9 0.00 0.15 0.15 87 1016.2
20260831195431 18 255 8.0 17.7 0.00 0.15 0.15 87 1016.1
20260831194933 18 233 8.0 20.9 0.00 0.15 0.15 87 1016.1
20260831194915 18 210 8.0 20.9 0.00 0.15 0.15 86 1015.9
20260831193933 18 204 6.4 16.1 0.00 0.15 0.15 86 1015.9
20260831193431 18 229 8.0 12.9 0.00 0.15 0.15 85 1015.8
20260831192932 18 236 8.0 16.1 0.00 0.15 0.15 84 1015.8
20260831192906 18 216 8.0 16.1 0.00 0.15 0.15 83 1015.8
20260831191930 18 229 8.0 14.5 0.00 0.15 0.15 83 1015.6
20260831191431 18 235 6.4 14.5 0.00 0.15 0.15 82 1015.6
20260831191417 18 181 6.4 16.1 0.00 0.15 0.15 82 1015.5
20260831190433 18 212 8.0 16.1 0.00 0.15 0.15 82 1015.4
20260831190418 18 242 8.0 16.1 0.00 0.15 0.15 81 1015.4
20260831185915 18 204 6.4 16.1 0.00 0.15 0.15 81 1015.4
20260831184931 18 205 6.4 12.9 0.00 0.15 0.15 81 1015.3
20260831184430 18 229 6.4 14.5 0.00 0.15 0.15 80 1015.3
20260831183932 18 210 6.4 14.5 0.00 0.15 0.15 80 1015.3
20260831183431 18 254 6.4 12.9 0.00 0.15 0.15 80 1015.2
20260831182931 18 225 8.0 19.3 0.00 0.15 0.15 80 1015.0
20260831182432 18 240 8.0 19.3 0.00 0.15 0.15 80 1015.1
20260831181932 18 241 8.0 17.7 0.00 0.15 0.15 79 1014.9
20260831181434 18 197 9.7 19.3 0.00 0.15 0.15 79 1014.8
20260831180932 18 243 11.3 20.9 0.00 0.15 0.15 79 1014.8
20260831180432 18 224 11.3 20.9 0.00 0.15 0.15 79 1014.6
20260831175931 19 240 11.3 22.5 0.00 0.15 0.15 79 1014.6
20260831175430 19 210 14.5 30.6 0.00 0.15 0.15 79 1014.5
20260831174931 19 230 12.9 30.6 0.00 0.15 0.15 79 1014.5
20260831174430 19 232 12.9 27.4 0.00 0.15 0.15 79 1014.5
20260831173932 19 204 14.5 27.4 0.00 0.15 0.15 79 1014.3
20260831173432 19 237 14.5 27.4 0.00 0.15 0.15 79 1014.2
20260831172933 19 255 16.1 27.4 0.00 0.15 0.15 80 1014.3
20260831172432 19 232 16.1 27.4 0.00 0.15 0.15 80 1014.2
20260831171933 19 245 14.5 24.1 0.00 0.15 0.15 81 1014.2
20260831171432 18 235 12.9 24.1 0.00 0.15 0.15 83 1014.0
20260831170933 18 229 12.9 24.1 0.03 0.15 0.15 84 1014.0
20260831170436 18 241 12.9 20.9 0.03 0.15 0.15 85 1013.8
20260831165932 18 233 9.7 22.5 0.03 0.15 0.15 86 1013.8
20260831165432 18 239 6.4 22.5 0.03 0.15 0.15 86 1013.7
20260831164928 18 253 6.4 14.5 0.03 0.15 0.15 86 1013.7
20260831164427 18 249 8.0 14.5 0.03 0.15 0.15 86 1013.8
20260831163928 18 248 8.0 19.3 0.03 0.15 0.15 86 1013.7
20260831163915 18 262 9.7 19.3 0.03 0.15 0.15 85 1013.7
20260831163407 18 212 11.3 22.5 0.03 0.15 0.15 84 1013.6
20260831162430 18 237 14.5 24.1 0.03 0.15 0.15 83 1013.5
20260831161931 18 233 16.1 29.0 0.03 0.15 0.15 82 1013.6
20260831161430 18 234 17.7 33.8 0.03 0.15 0.15 81 1013.6
20260831160930 19 252 19.3 43.5 0.00 0.15 0.15 79 1013.6
20260831160428 20 241 19.3 43.5 0.00 0.15 0.15 77 1013.4
20260831155931 20 231 19.3 40.2 0.00 0.15 0.15 75 1013.3
20260831155428 20 270 19.3 40.2 0.00 0.15 0.15 74 1013.2
20260831154931 20 231 19.3 40.2 0.00 0.15 0.15 74 1013.1
20260831154919 20 187 19.3 40.2 0.00 0.15 0.15 74 1013.1
20260831153929 20 247 17.7 32.2 0.00 0.15 0.15 75 1013.0
20260831153428 20 250 17.7 32.2 0.00 0.15 0.15 76 1012.9
20260831152928 20 216 19.3 38.6 0.00 0.15 0.15 77 1013.0
20260831152428 20 211 19.3 38.6 0.00 0.15 0.15 76 1012.9
20260831151929 20 234 17.7 37.0 0.00 0.15 0.15 76 1012.9
20260831151918 20 230 16.1 37.0 0.00 0.15 0.15 76 1012.8
20260831150926 20 252 19.3 40.2 0.00 0.15 0.15 76 1012.7
20260831150905 20 249 19.3 38.6 0.00 0.15 0.15 74 1012.6
20260831150630 20 265 19.3 40.2 0.00 0.15 0.15 75 1012.7
20260831145913 20 235 22.5 40.2 0.00 0.15 0.15 74 1012.6
20260831144923 20 249 22.5 40.2 0.00 0.15 0.15 75 1012.6
20260831144424 20 223 24.1 41.8 0.00 0.15 0.15 74 1012.5
20260831143924 20 243 24.1 41.8 0.00 0.15 0.15 73 1012.5
20260831143915 20 254 20.9 41.8 0.00 0.15 0.15 72 1012.3
20260831142923 20 208 19.3 33.8 0.00 0.15 0.15 75 1012.3
20260831142423 20 241 20.9 43.5 0.00 0.15 0.15 75 1012.2
20260831141921 20 214 22.5 43.5 0.00 0.15 0.15 74 1012.1
20260831141416 20 231 20.9 45.1 0.00 0.15 0.15 73 1012.0
20260831140913 20 206 19.3 45.1 0.00 0.15 0.15 71 1011.9
20260831140857 20 229 20.9 43.5 0.00 0.15 0.15 70 1011.8
20260831140356 20 275 20.9 43.5 0.00 0.15 0.15 69 1011.6